[keps] orb08199.amsat

Ray Hoad r.hoad at att.net
Thu Jul 17 19:31:21 PDT 2008


SB KEPS @ AMSAT  $ORB08199.O
Orbital Elements  08199.OSCAR

HR AMSAT ORBITAL ELEMENTS FOR OSCAR SATELLITES
FROM WA5QGD FORT WORTH,TX July 17, 2008
Send Subscribe/unsubscribe to KEPS at 
http://www.amsat.org/mailman/listinfo/keps
BID: ORB08199.O
TO ALL RADIO AMATEURS BT

Satellite: AO-07
Catalog number: 07530
Epoch time:      08198.66236850
Element set:    0230
Inclination:      101.4635 deg
RA of node:       229.1716 deg
Eccentricity:    0.0011757
Arg of perigee:   203.6117 deg
Mean anomaly:     156.4412 deg
Mean motion:   12.53573684 rev/day
Decay rate:       -2.7e-07 rev/day^2
Epoch rev:           54067
Checksum:              288

Satellite: AO-10
Catalog number: 14129
Epoch time:      08198.35823128
Element set:    0531
Inclination:      025.9975 deg
RA of node:       205.2854 deg
Eccentricity:    0.5976638
Arg of perigee:   140.6430 deg
Mean anomaly:     283.4189 deg
Mean motion:   02.05868145 rev/day
Decay rate:       -2.3e-07 rev/day^2
Epoch rev:           18870
Checksum:              325

Satellite: UO-11
Catalog number: 14781
Epoch time:      08198.53460991
Element set:    0722
Inclination:      098.1528 deg
RA of node:       233.0043 deg
Eccentricity:    0.0008789
Arg of perigee:   345.9073 deg
Mean anomaly:     014.1913 deg
Mean motion:   14.79654146 rev/day
Decay rate:       2.35e-06 rev/day^2
Epoch rev:           30819
Checksum:              315

Satellite: RS-15
Catalog number: 23439
Epoch time:      08198.90288595
Element set:    0173
Inclination:      064.8161 deg
RA of node:       086.9977 deg
Eccentricity:    0.0147183
Arg of perigee:   117.1632 deg
Mean anomaly:     244.4383 deg
Mean motion:   11.27552349 rev/day
Decay rate:       -3.9e-07 rev/day^2
Epoch rev:           55831
Checksum:              340

Satellite: FO-29
Catalog number: 24278
Epoch time:      08199.81276199
Element set:     815
Inclination:      098.5848 deg
RA of node:       112.0967 deg
Eccentricity:    0.0351208
Arg of perigee:   136.2159 deg
Mean anomaly:     226.7407 deg
Mean motion:   13.52938445 rev/day
Decay rate:       -5.7e-07 rev/day^2
Epoch rev:           58853
Checksum:              357

Satellite: SO-33
Catalog number: 25509
Epoch time:      08198.96621531
Element set:    0245
Inclination:      031.4318 deg
RA of node:       147.9729 deg
Eccentricity:    0.0355428
Arg of perigee:   287.4942 deg
Mean anomaly:     068.7141 deg
Mean motion:   14.28217360 rev/day
Decay rate:        4.7e-07 rev/day^2
Epoch rev:           50787
Checksum:              329

Satellite: AO-40
Catalog number: 26609
Epoch time:      08198.26660400
Element set:      91
Inclination:      007.6181 deg
RA of node:       072.0233 deg
Eccentricity:    0.7920827
Arg of perigee:   101.9699 deg
Mean anomaly:     346.3116 deg
Mean motion:   01.25584494 rev/day
Decay rate:      -1.96e-06 rev/day^2
Epoch rev:            3540
Checksum:              302

Satellite: VO-52
Catalog number: 28650
Epoch time:      08198.24651824
Element set:    0983
Inclination:      097.7881 deg
RA of node:       264.0581 deg
Eccentricity:    0.0028159
Arg of perigee:   047.6968 deg
Mean anomaly:     312.6599 deg
Mean motion:   14.81482457 rev/day
Decay rate:        9.3e-07 rev/day^2
Epoch rev:           17290
Checksum:              358

Satellite: PO-63
Catalog number: 29712
Epoch time:      08199.17073255
Element set:     624
Inclination:      097.8737 deg
RA of node:       256.7931 deg
Eccentricity:    0.0012996
Arg of perigee:   286.6583 deg
Mean anomaly:     073.3207 deg
Mean motion:   14.80212581 rev/day
Decay rate:       4.27e-06 rev/day^2
Epoch rev:            8190
Checksum:              333

/EX
SB KEPS @ AMSAT  $ORB08199.D
Orbital Elements  08199.MICROS

HR AMSAT ORBITAL ELEMENTS FOR THE MICROSATS
FROM WA5QGD FORT WORTH,TX July 17, 2008
Send Subscribe/unsubscribe to KEPS at 
http://www.amsat.org/mailman/listinfo/keps
BID: ORB08199.D
TO ALL RADIO AMATEURS BT

Satellite: AO-16
Catalog number: 20439
Epoch time:      08198.49144889
Element set:    0370
Inclination:      098.2307 deg
RA of node:       177.0575 deg
Eccentricity:    0.0011929
Arg of perigee:   088.5180 deg
Mean anomaly:     271.7372 deg
Mean motion:   14.31798154 rev/day
Decay rate:       -2.0e-08 rev/day^2
Epoch rev:           96511
Checksum:              330

Satellite: LO-19
Catalog number: 20442
Epoch time:      08198.53390113
Element set:    0296
Inclination:      098.2006 deg
RA of node:       185.5458 deg
Eccentricity:    0.0012963
Arg of perigee:   086.5683 deg
Mean anomaly:     273.6989 deg
Mean motion:   14.32036525 rev/day
Decay rate:        1.0e-07 rev/day^2
Epoch rev:           96527
Checksum:              324

Satellite: AO-27
Catalog number: 22825
Epoch time:      08198.46377567
Element set:    0018
Inclination:      098.3852 deg
RA of node:       157.3901 deg
Eccentricity:    0.0008446
Arg of perigee:   168.2996 deg
Mean anomaly:     191.8393 deg
Mean motion:   14.29243432 rev/day
Decay rate:        8.6e-07 rev/day^2
Epoch rev:           77195
Checksum:              354

Satellite: IO-26
Catalog number: 22826
Epoch time:      08199.42266789
Element set:     724
Inclination:      098.3779 deg
RA of node:       159.2084 deg
Eccentricity:    0.0009019
Arg of perigee:   162.6179 deg
Mean anomaly:     197.5323 deg
Mean motion:   14.29492024 rev/day
Decay rate:       -1.0e-07 rev/day^2
Epoch rev:           77218
Checksum:              340

Satellite: PO-28
Catalog number: 22829
Epoch time:      08197.92520654
Element set:    0995
Inclination:      098.3644 deg
RA of node:       158.8664 deg
Eccentricity:    0.0010306
Arg of perigee:   139.9805 deg
Mean anomaly:     220.2088 deg
Mean motion:   14.30192869 rev/day
Decay rate:       -4.1e-07 rev/day^2
Epoch rev:           77223
Checksum:              334

Satellite: GO-32
Catalog number: 25397
Epoch time:      08198.70981132
Element set:     648
Inclination:      098.3620 deg
RA of node:       232.4116 deg
Eccentricity:    0.0001931
Arg of perigee:   127.7841 deg
Mean anomaly:     232.3519 deg
Mean motion:   14.23145443 rev/day
Decay rate:       -7.5e-07 rev/day^2
Epoch rev:           52041
Checksum:              289

Satellite: NO-44
Catalog number: 26931
Epoch time:      08198.53067293
Element set:    0929
Inclination:      067.0513 deg
RA of node:       209.0631 deg
Eccentricity:    0.0007256
Arg of perigee:   269.1232 deg
Mean anomaly:     090.9037 deg
Mean motion:   14.29529019 rev/day
Decay rate:       1.80e-06 rev/day^2
Epoch rev:           35460
Checksum:              305

Satellite: SO-50
Catalog number: 27607
Epoch time:      08199.45594510
Element set:     653
Inclination:      064.5604 deg
RA of node:       321.7119 deg
Eccentricity:    0.0086245
Arg of perigee:   273.5881 deg
Mean anomaly:     085.5351 deg
Mean motion:   14.71368018 rev/day
Decay rate:       -8.3e-07 rev/day^2
Epoch rev:           29942
Checksum:              324

Satellite: CO-55
Catalog number: 27844
Epoch time:      08198.66652728
Element set:    0353
Inclination:      098.7149 deg
RA of node:       206.5227 deg
Eccentricity:    0.0010884
Arg of perigee:   035.5371 deg
Mean anomaly:     324.6532 deg
Mean motion:   14.20587945 rev/day
Decay rate:        2.6e-07 rev/day^2
Epoch rev:           26162
Checksum:              327

Satellite: CO-57
Catalog number: 27848
Epoch time:      08198.52769979
Element set:    0303
Inclination:      098.7163 deg
RA of node:       205.4766 deg
Eccentricity:    0.0010598
Arg of perigee:   038.9290 deg
Mean anomaly:     321.2642 deg
Mean motion:   14.20396476 rev/day
Decay rate:        1.6e-07 rev/day^2
Epoch rev:           26157
Checksum:              346

Satellite: AO-51
Catalog number: 28375
Epoch time:      08199.33151823
Element set:     150
Inclination:      098.0692 deg
RA of node:       222.2042 deg
Eccentricity:    0.0085285
Arg of perigee:   061.3066 deg
Mean anomaly:     299.6663 deg
Mean motion:   14.40613420 rev/day
Decay rate:       -5.0e-08 rev/day^2
Epoch rev:           21274
Checksum:              288

Satellite: CO-56
Catalog number: 28941
Epoch time:      08199.38894990
Element set:     226
Inclination:      098.1097 deg
RA of node:       314.2648 deg
Eccentricity:    0.0160693
Arg of perigee:   291.2726 deg
Mean anomaly:     067.1593 deg
Mean motion:   15.58203573 rev/day
Decay rate:     1.1231e-04 rev/day^2
Epoch rev:           13474
Checksum:              343

Satellite: CP4
Catalog number: 31122
Epoch time:      08198.93632733
Element set:    0390
Inclination:      098.0415 deg
RA of node:       263.4246 deg
Eccentricity:    0.0084557
Arg of perigee:   235.6351 deg
Mean anomaly:     123.6753 deg
Mean motion:   14.55142825 rev/day
Decay rate:       5.50e-06 rev/day^2
Epoch rev:           06640
Checksum:              294

Satellite: CP3
Catalog number: 31128
Epoch time:      08198.82986249
Element set:    0383
Inclination:      098.0398 deg
RA of node:       261.0154 deg
Eccentricity:    0.0101665
Arg of perigee:   242.6451 deg
Mean anomaly:     116.4367 deg
Mean motion:   14.51960030 rev/day
Decay rate:       -4.8e-07 rev/day^2
Epoch rev:           06623
Checksum:              302

/EX
SB KEPS @ AMSAT  $ORB08199.W
Orbital Elements  08199.WEATHER

HR AMSAT ORBITAL ELEMENTS FOR WEATHER SATELLITES
FROM WA5QGD FORT WORTH,TX July 17, 2008
Send Subscribe/unsubscribe to KEPS at 
http://www.amsat.org/mailman/listinfo/keps
BID: ORB08199.W
TO ALL RADIO AMATEURS BT

Satellite: NOAA-10
Catalog number: 16969
Epoch time:      08198.94673604
Element set:    0205
Inclination:      098.7213 deg
RA of node:       220.8551 deg
Eccentricity:    0.0013260
Arg of perigee:   093.6092 deg
Mean anomaly:     266.6603 deg
Mean motion:   14.27364341 rev/day
Decay rate:        7.7e-07 rev/day^2
Epoch rev:           13568
Checksum:              310

